This demonstration page uses our WeatherBlox Daily Observations layout. Learn more.

Left ArrowRight Arrow

47.50024, -111.30081

Hourly Observations for May 12, 2022

Temp ( °F °C ) Dew Point ( °F °C ) Humidity (%) Winds ( mph kmh ) Pressure ( in mb ) Visibility ( mi km ) Precip ( " mm )
12:53 am 00:53 Cloudy with Light Rain 47 8.3 36 2.2 66 66 ENE 10 17 30.02 1017 10 16 0.00 0.00
1:53 am 01:53 Cloudy with Rain 45 7.2 38 3.3 77 77 E 3 6 30.02 1017 7 11 0.03 0.76
2:53 am 02:53 Cloudy with Light Rain 44 6.7 38 3.3 79 79 N 12 19 29.99 1016 10 16 0.02 0.51
3:53 am 03:53 Cloudy 44 6.7 39 3.9 83 83 Calm 29.99 1016 10 16 0.00 0.00
4:53 am 04:53 Cloudy 44 6.7 40 4.4 85 85 WNW 6 9 30.00 1016 10 16 0.00 0.00
5:53 am 05:53 Cloudy 44 6.7 40 4.4 85 85 NNW 3 6 30.01 1016 10 16 0.00 0.00
6:53 am 06:53 Cloudy with Light Rain 43 6.1 39 3.9 86 86 NNW 6 9 30.02 1017 9 14 0.02 0.51
7:43 am 07:43 Cloudy with Rain 42 5.6 40 4.4 92 92 NW 7 11 30.04 1017 2 3 0.17 4.32
7:53 am 07:53 Cloudy with Rain 42 5.6 40 4.4 92 92 Calm 30.05 1018 3 4 0.20 5.08
8:06 am 08:06 Cloudy with Rain 42 5.6 40 4.4 92 92 Calm 30.05 1018 3 5 0.04 1.02
8:19 am 08:19 Cloudy with Rain 42 5.6 40 4.4 92 92 S 6 9 30.06 1018 2 3 0.07 1.78
8:26 am 08:26 Cloudy with Rain 42 5.6 40 4.4 92 92 SSW 8 13 30.06 1018 2 2 0.11 2.79
8:34 am 08:34 Cloudy with Rain 42 5.6 41 5 96 96 S 8 13 30.06 1018 3 4 0.14 3.56
8:43 am 08:43 Cloudy with Rain 42 5.6 40 4.4 92 92 SSW 7 11 30.07 1018 3 5 0.18 4.57
8:53 am 08:53 Cloudy with Rain 42 5.6 40 4.4 92 92 SW 6 9 30.08 1019 3 4 0.23 5.84
9:18 am 09:18 Cloudy with Rain 42 5.6 39 3.9 89 89 WSW 7 11 30.07 1018 4 6 0.09 2.29
9:31 am 09:31 Cloudy with Light Rain 42 5.6 39 3.9 89 89 WSW 5 7 30.07 1018 5 8 0.11 2.79
9:53 am 09:53 Cloudy with Light Rain 43 6.1 40 4.4 89 89 SW 6 9 30.07 1018 5 8 0.15 3.81
10:25 am 10:25 Cloudy with Light Rain 44 6.7 41 5 89 89 WSW 8 13 30.05 1018 10 16 0.03 0.76
10:37 am 10:37 Cloudy with Light Rain 44 6.7 41 5 89 89 WSW 8 13 30.05 1018 10 16 0.03 0.76
10:53 am 10:53 Cloudy with Light Rain 45 7.2 41 5 86 86 WSW 10 17 30.07 1018 10 16 0.04 1.02
11:30 am 11:30 Cloudy 44 6.7 42 5.6 93 93 SW 10 17 30.05 1018 10 16 0.00 0.00
11:39 am 11:39 Cloudy with Light Rain 45 7.2 42 5.6 90 90 SW 10 17 30.05 1017 10 16 0.00 0.00
11:53 am 11:53 Cloudy with Light Rain 45 7.2 43 6.1 93 93 SW 13 20 30.07 1018 10 16 0.00 0.00
12:53 pm 12:53 Cloudy 47 8.3 42 5.6 83 83 SW 9 15 30.06 1018 10 16 0.00 0.00
1:53 pm 13:53 Cloudy 48 8.9 41 5 77 77 W 12 19 30.06 1018 10 16 0.00 0.00
2:53 pm 14:53 Cloudy 53 11.7 37 2.8 55 55 WNW 6 9 30.04 1017 10 16 0.00 0.00
3:53 pm 15:53 Mostly Cloudy 54 12.2 39 3.9 57 57 NW 9 15 30.02 1017 10 16 0.00 0.00
4:53 pm 16:53 Sunny 54 12.2 36 2.2 51 51 WNW 7 11 30.00 1016 10 16 0.00 0.00
5:53 pm 17:53 Mostly Sunny 56 13.3 34 1.1 44 44 W 12 19 29.97 1015 10 16 0.00 0.00
6:53 pm 18:53 Sunny 55 12.8 35 1.7 47 47 NNW 6 9 29.96 1015 10 16 0.00 0.00
7:53 pm 19:53 Partly Cloudy 52 11.1 34 1.1 50 50 Calm 29.99 1016 10 16 0.00 0.00
8:53 pm 20:53 Cloudy 49 9.4 34 1.1 56 56 SW 10 17 30.01 1016 10 16 0.00 0.00
9:53 pm 21:53 Partly Cloudy 48 8.9 34 1.1 58 58 Calm 30.01 1016 10 16 0.00 0.00
10:53 pm 22:53 Mostly Cloudy 40 4.4 35 1.7 83 83 NW 3 6 30.02 1017 10 16 0.00 0.00
11:53 pm 23:53 Mostly Clear 43 6.1 35 1.7 74 74 WNW 3 6 30.00 1016 10 16 0.00 0.00

Powered by AerisWeather